Location: Newark
(50.0306°N, 2.3272°E)
Time: 02:36:51
(UTC+00:00)

Altair - Visible Passes

Search period start: 11 December 2019 00:00
Search period end: 21 December 2019 00:00
Orbit: 1502 x 1682 km, 47.2° (Epoch: 09 December)

Date Brightness Start Highest point End Pass type
(mag) Time Alt. Az. Time Alt. Az. Time Alt. Az.
11 Dec 9.0 03:20:58 18° SSE 03:20:58 18° SSE 03:23:17 10° SSE visible
11 Dec 9.0 18:30:07 10° SSE 18:33:31 15° SE 18:33:31 15° SE visible
11 Dec 9.1 20:29:13 10° SW 20:31:35 19° SSW 20:31:35 19° SSW visible
12 Dec 9.3 02:57:38 13° SSE 02:57:38 13° SSE 02:58:22 10° SSE visible
12 Dec 8.9 18:05:47 10° SSE 18:10:09 14° SE 18:10:09 14° SE visible
12 Dec 8.7 20:04:13 10° SSW 20:08:12 26° SSW 20:08:12 26° SSW visible
13 Dec 9.0 17:41:37 10° SSE 17:45:17 13° SE 17:46:44 12° ESE visible
13 Dec 8.4 19:39:14 10° SSW 19:44:47 32° S 19:44:47 32° S visible
13 Dec 9.6 21:42:20 10° WSW 21:42:50 12° WSW 21:42:50 12° WSW visible
14 Dec 9.1 17:17:50 10° SE 17:20:18 11° ESE 17:22:45 10° ESE visible
14 Dec 8.2 19:14:17 10° SSW 19:21:20 36° SSE 19:21:20 36° SSE visible
14 Dec 9.2 21:17:11 10° WSW 21:19:22 19° WSW 21:19:22 19° WSW visible
15 Dec 8.1 18:49:20 10° SSW 18:57:48 35° SE 18:57:50 35° SE visible
15 Dec 8.8 20:52:02 10° WSW 20:55:53 28° WSW 20:55:53 28° WSW visible
16 Dec 8.1 18:24:26 10° SSW 18:32:44 33° SE 18:34:17 32° ESE visible
16 Dec 8.4 20:26:54 10° WSW 20:32:20 38° SW 20:32:20 38° SW visible
17 Dec 8.3 17:59:32 10° SSW 18:07:41 31° SE 18:10:44 26° ESE visible
17 Dec 7.9 20:01:46 10° WSW 20:08:46 49° SSW 20:08:46 49° SSW visible
17 Dec 9.6 22:06:08 10° W 22:06:48 13° W 22:06:48 13° W visible
18 Dec 8.4 17:34:41 10° SSW 17:42:38 29° SE 17:47:07 20° E visible
18 Dec 7.6 19:36:38 10° SW 19:45:09 59° S 19:45:09 59° S visible
18 Dec 9.2 21:40:56 10° W 21:43:11 19° W 21:43:11 19° W visible
19 Dec 8.6 17:09:51 10° S 17:17:35 27° SE 17:23:28 15° E visible
19 Dec 7.5 19:11:31 10° SW 19:21:00 59° SSE 19:21:30 58° SE visible
19 Dec 8.9 21:15:45 10° W 21:19:31 28° W 21:19:31 28° W visible
20 Dec 8.7 16:45:04 10° S 16:52:32 25° SE 16:59:47 10° E visible
20 Dec 7.6 18:46:26 10° SW 18:55:52 57° SSE 18:57:49 49° ESE visible
20 Dec 8.4 20:50:33 10° W 20:55:51 38° WSW 20:55:51 38° WSW visible
